EW5854 Weather Reports


time (UTC)temp
C
wind
direction
speed
KPH
gust
KPH
rain 1hr
cm
rain 24hr
cm
rain mn
cm
humidity
%
barometer
mb
20260504231551 10 341 0.0 0.0 0.00 0.00 0.00 92 1006.3
20260504230041 11 342 0.0 0.0 0.00 0.00 0.00 91 1006.1
20260504224541 11 342 0.0 0.0 0.00 0.00 0.00 89 1006.0
20260504223030 12 342 0.0 0.0 0.00 0.00 0.00 87 1006.0
20260504221529 12 342 0.0 0.0 0.00 0.00 0.00 85 1005.9
20260504220029 12 342 0.0 0.0 0.00 0.00 0.00 87 1005.9
20260504214535 13 340 0.0 0.0 0.00 0.00 0.00 83 1006.0
20260504213030 13 340 0.0 0.0 0.00 0.00 0.00 84 1006.1
20260504211528 14 341 0.0 0.0 0.00 0.00 0.00 82 1006.1
20260504210027 14 341 0.0 0.0 0.00 0.00 0.00 81 1006.0
20260504204554 15 341 0.0 0.0 0.00 0.00 0.00 76 1005.8
20260504203015 16 345 0.0 0.0 0.00 0.00 0.00 72 1005.9
20260504201514 16 341 0.0 0.0 0.00 0.00 0.00 76 1005.9
20260504200014 15 345 0.0 0.0 0.00 0.00 0.00 78 1005.9
20260504194511 13 342 0.0 0.0 0.00 0.00 0.00 79 1005.9
20260504193017 13 344 0.0 0.0 0.00 0.00 0.00 88 1005.9
20260504191508 12 345 0.0 0.0 0.00 0.00 0.00 97 1006.1
20260504190009 12 342 0.0 0.0 0.00 0.00 0.00 97 1006.2
20260504184506 12 347 0.0 0.0 0.00 0.00 0.00 98 1006.4
20260504183059 12 347 0.0 0.0 0.00 0.00 0.00 99 1006.4
20260504181553 11 353 0.0 0.0 0.00 0.00 0.00 99 1006.5
20260504180053 11 353 0.0 0.0 0.00 0.00 0.00 99 1006.5
20260504174553 11 355 0.0 0.0 0.00 0.00 0.00 99 1006.7
20260504173052 10 1 0.0 0.0 0.00 0.00 0.00 99 1006.8
20260504171553 11 360 0.0 0.0 0.00 0.00 0.00 99 1006.9
20260504081541 0 340 0.0 0.0 0.00 0.00 0.00 99 1008.0
20260504044545 1 340 0.0 0.0 0.00 0.00 0.00 98 1007.7
20260504043044 1 340 0.0 0.0 0.00 0.00 0.00 98 1007.7
20260504041541 1 340 0.0 0.0 0.00 0.00 0.00 97 1007.7
20260504040041 1 340 0.0 0.0 0.00 0.00 0.00 97 1007.7
20260504034541 1 340 0.0 0.0 0.00 0.00 0.00 97 1007.5
20260504033035 1 340 0.0 0.0 0.00 0.00 0.00 96 1007.5
20260504031534 1 340 0.0 0.0 0.00 0.00 0.00 95 1007.5
20260504030030 2 340 0.0 0.0 0.00 0.00 0.00 94 1007.3
20260504024519 2 340 0.0 0.0 0.00 0.00 0.00 94 1007.1
20260504023017 2 340 0.0 0.0 0.00 0.00 0.00 93 1007.2
20260504021515 2 340 0.0 0.0 0.00 0.00 0.00 92 1007.2
20260504020018 3 340 0.0 0.0 0.00 0.00 0.00 91 1007.1
20260504014511 3 340 0.0 0.0 0.00 0.00 0.00 91 1007.0
20260504013010 4 340 0.0 0.0 0.00 0.00 0.00 89 1006.9
20260504011505 5 340 0.0 0.0 0.00 0.00 0.00 88 1006.8
20260504010104 5 342 0.0 0.0 0.00 0.00 0.00 87 1006.5
20260504004551 5 342 0.0 0.0 0.00 0.00 0.00 88 1006.3
20260504003058 6 342 0.0 0.0 0.00 0.00 0.00 87 1006.1
20260504001554 6 342 0.0 0.0 0.00 0.00 0.00 85 1005.9
20260504000050 6 342 0.0 0.0 0.00 0.00 0.00 87 1005.7
20260503234551 6 342 0.0 0.0 0.00 0.00 0.00 85 1005.5
20260503233049 7 342 0.0 0.0 0.00 0.00 0.00 84 1005.2